Regional Weather Roundup
Issued by NWS

Home | Current Version | Previous Version | Text Only | Print | Product List | Glossary Off
Versions: 1 2 3 4 5 6 7 8 9 10 11 12 13 14 15 16 17 18 19 20 21 22 23 24 25 26 27 28

000
ASUS45 KCYS 230210
RWRWY

WYOMING REGIONAL WEATHER ROUNDUP
NATIONAL WEATHER SERVICE CHEYENNE WY
800 PM MDT WED OCT 22 2014

NOTE:  "FAIR" INDICATES FEW OR NO CLOUDS BELOW 12,000 FEET
WITH NO SIGNIFICANT WEATHER AND/OR OBSTRUCTIONS TO VISIBILITY.

WYZ001-230300-
YELLOWSTONE NATIONAL PARK

CITY           SKY/WX    TMP DP  RH WIND       PRES   REMARKS
LK YELLOWSTONE   N/A     28  24  85 NW3       30.25R
W YELLOWSTONE  NOT AVBL

$$
WYZ002>013-054>058-071-098>099-230300-
NORTHERN WYOMING

CITY           SKY/WX    TMP DP  RH WIND       PRES   REMARKS
JACKSON        CLEAR     39  23  52 CALM      30.21R
CODY           PTCLDY    54  21  28 W17G24    30.05R
GREYBULL       CLEAR     50  22  33 VRB3      30.03R
WORLAND        CLEAR     48  20  32 SE13      30.03R
SHERIDAN       CLEAR     38  28  67 SW8       29.99S WCI  32
BUFFALO        CLEAR     44  25  47 W10       30.04R
GILLETTE       CLEAR     39  24  55 W7        30.01R WCI  34
HULETT         FAIR      45  30  57 S7        30.02
NEWCASTLE      FAIR      45  27  49 CALM      30.04

$$
WYZ014>020-022>026-101>103-230300-
CENTRAL WYOMING

CITY           SKY/WX    TMP DP  RH WIND       PRES   REMARKS
BIG PINEY      CLEAR     33  20  58 NW8       30.23R WCI  26
PINEDALE       PTCLDY    32  27  80 CALM      30.24R
DUBOIS         FAIR      37  19  48 NW12      30.18R WCI  30
LANDER         PTCLDY    48  22  35 S3        30.07R
RIVERTON       PTCLDY    49  16  26 W7        30.09R
CASPER         PTCLDY    42  16  34 SW10      30.09R
DOUGLAS        CLEAR     50  14  23 SW9       30.10R

$$
WYZ021-027>030-104>119-230300-
SOUTHERN WYOMING

CITY           SKY/WX    TMP DP  RH WIND       PRES   REMARKS
EVANSTON       CLEAR     45  18  34 SW5       30.24R
KEMMERER       CLEAR     39  18  41 W8        30.24R WCI  34
FORT BRIDGER   FAIR      44  18  35 W6        30.26R
ROCK SPRINGS   CLEAR     42  22  44 S7        30.23R
DIXON          FAIR      42  37  83 E3        30.25R
RAWLINS        PTCLDY    40  19  43 SW8       30.21R WCI  34
SARATOGA       FAIR      37  30  75 S8        30.24S WCI  31
LARAMIE        CLEAR     45  23  42 S8        30.19S
CHEYENNE       CLEAR     51  25  36 SW7       30.16R
TORRINGTON     CLEAR     55  18  23 NW9       30.07R
PINE BLUFFS    MOCLDY    46  43  87 CALM      30.15R

$$



USA.gov is the U.S. government's official web portal to all federal, state and local government web resources and services.